Year,Month,Day,Hour,Minute,Value (Times are PST for temperature in C)
2010,08,15,00,00,25.20
2010,08,15,00,01,25.20
2010,08,15,00,02,25.20
2010,08,15,00,03,25.20
2010,08,15,00,04,25.20
2010,08,15,00,05,25.20
2010,08,15,00,06,25.20
2010,08,15,00,07,25.20
2010,08,15,00,08,25.20
2010,08,15,00,09,25.20
2010,08,15,00,10,25.20
2010,08,15,00,11,25.20
2010,08,15,00,12,25.20
2010,08,15,00,13,25.20
2010,08,15,00,14,25.20
2010,08,15,00,15,25.20
2010,08,15,00,16,25.20
2010,08,15,00,17,25.30
2010,08,15,00,18,25.30
2010,08,15,00,19,25.30
2010,08,15,00,20,25.30
2010,08,15,00,21,25.30
2010,08,15,00,22,25.30
2010,08,15,00,23,25.30
2010,08,15,00,24,25.40
2010,08,15,00,25,25.40
2010,08,15,00,26,25.40
2010,08,15,00,27,25.40
2010,08,15,00,28,25.40
2010,08,15,00,29,25.40
2010,08,15,00,30,25.40
2010,08,15,00,31,25.40
2010,08,15,00,32,25.40
2010,08,15,00,33,25.40
2010,08,15,00,34,25.40
2010,08,15,00,35,25.30
2010,08,15,00,36,25.30
2010,08,15,00,37,25.30
2010,08,15,00,38,25.30
2010,08,15,00,39,25.30
2010,08,15,00,40,25.20
2010,08,15,00,41,25.20
2010,08,15,00,42,25.20
2010,08,15,00,43,25.20
2010,08,15,00,44,25.20
2010,08,15,00,45,25.20
2010,08,15,00,46,25.10
2010,08,15,00,47,25.10
2010,08,15,00,48,25.20
2010,08,15,00,49,25.20
2010,08,15,00,50,25.20
2010,08,15,00,51,25.20
2010,08,15,00,52,25.10
2010,08,15,00,53,25.10
2010,08,15,00,54,25.10
2010,08,15,00,55,25.00
2010,08,15,00,56,25.00
2010,08,15,00,57,24.90
2010,08,15,00,58,24.90
2010,08,15,00,59,24.80
2010,08,15,01,00,24.70
2010,08,15,01,01,24.60
2010,08,15,01,02,24.50
2010,08,15,01,03,24.40
2010,08,15,01,04,24.20
2010,08,15,01,05,24.10
2010,08,15,01,06,24.10
2010,08,15,01,07,24.10
2010,08,15,01,08,24.00
2010,08,15,01,09,23.90
2010,08,15,01,10,23.90
2010,08,15,01,11,23.90
2010,08,15,01,12,23.80
2010,08,15,01,13,23.80
2010,08,15,01,14,23.80
2010,08,15,01,15,23.70
2010,08,15,01,16,23.70
2010,08,15,01,17,23.70
2010,08,15,01,18,23.70
2010,08,15,01,19,23.70
2010,08,15,01,20,23.70
2010,08,15,01,21,23.70
2010,08,15,01,22,23.70
2010,08,15,01,23,23.80
2010,08,15,01,24,23.80
2010,08,15,01,25,23.80
2010,08,15,01,26,23.80
2010,08,15,01,27,23.80
2010,08,15,01,28,23.90
2010,08,15,01,29,23.90
2010,08,15,01,30,24.00
2010,08,15,01,31,24.10
2010,08,15,01,32,24.10
2010,08,15,01,33,24.10
2010,08,15,01,34,24.10
2010,08,15,01,35,24.10
2010,08,15,01,36,24.10
2010,08,15,01,37,24.10
2010,08,15,01,38,24.10
2010,08,15,01,39,24.10
2010,08,15,01,40,24.10
2010,08,15,01,41,24.10
2010,08,15,01,42,24.10
2010,08,15,01,43,24.10
2010,08,15,01,44,24.10
2010,08,15,01,45,24.10
2010,08,15,01,46,24.10
2010,08,15,01,47,24.10
2010,08,15,01,48,24.10
2010,08,15,01,49,24.10
2010,08,15,01,50,24.10
2010,08,15,01,51,24.10
2010,08,15,01,52,24.10
2010,08,15,01,53,24.10
2010,08,15,01,54,24.10
2010,08,15,01,55,24.20
2010,08,15,01,56,24.30
2010,08,15,01,57,24.40
2010,08,15,01,58,24.50
2010,08,15,01,59,24.60
2010,08,15,02,00,24.70
2010,08,15,02,01,24.80
2010,08,15,02,02,24.80
2010,08,15,02,03,24.80
2010,08,15,02,04,24.80
2010,08,15,02,05,24.70
2010,08,15,02,06,24.70
2010,08,15,02,07,24.60
2010,08,15,02,08,24.50
2010,08,15,02,09,24.50
2010,08,15,02,10,24.50
2010,08,15,02,11,24.40
2010,08,15,02,12,24.40
2010,08,15,02,13,24.40
2010,08,15,02,14,24.40
2010,08,15,02,15,24.30
2010,08,15,02,16,24.30
2010,08,15,02,17,24.30
2010,08,15,02,18,24.30
2010,08,15,02,19,24.30
2010,08,15,02,20,24.20
2010,08,15,02,21,24.20
2010,08,15,02,22,24.10
2010,08,15,02,23,24.10
2010,08,15,02,24,23.90
2010,08,15,02,25,23.90
2010,08,15,02,26,23.80
2010,08,15,02,27,23.70
2010,08,15,02,28,23.70
2010,08,15,02,29,23.60
2010,08,15,02,30,23.60
2010,08,15,02,31,23.40
2010,08,15,02,32,23.40
2010,08,15,02,33,23.30
2010,08,15,02,34,23.30
2010,08,15,02,35,23.30
2010,08,15,02,36,23.20
2010,08,15,02,37,23.20
2010,08,15,02,38,23.20
2010,08,15,02,39,23.20
2010,08,15,02,40,23.20
2010,08,15,02,41,23.20
2010,08,15,02,42,23.10
2010,08,15,02,43,23.10
2010,08,15,02,44,23.10
2010,08,15,02,45,23.10
2010,08,15,02,46,23.00
2010,08,15,02,47,22.90
2010,08,15,02,48,22.90
2010,08,15,02,49,22.90
2010,08,15,02,50,22.90
2010,08,15,02,51,22.90
2010,08,15,02,52,22.90
2010,08,15,02,53,22.90
2010,08,15,02,54,22.90
2010,08,15,02,55,22.90
2010,08,15,02,56,22.90
2010,08,15,02,57,22.90
2010,08,15,02,58,22.90
2010,08,15,02,59,22.90
2010,08,15,03,00,22.90
2010,08,15,03,01,22.90
2010,08,15,03,02,22.90
2010,08,15,03,03,22.90
2010,08,15,03,04,22.90
2010,08,15,03,05,22.90
2010,08,15,03,06,22.90
2010,08,15,03,07,22.90
2010,08,15,03,08,23.00
2010,08,15,03,09,23.10
2010,08,15,03,10,23.10
2010,08,15,03,11,23.10
2010,08,15,03,12,23.10
2010,08,15,03,13,23.20
2010,08,15,03,14,23.20
2010,08,15,03,15,23.20
2010,08,15,03,16,23.20
2010,08,15,03,17,23.30
2010,08,15,03,18,23.30
2010,08,15,03,19,23.30
2010,08,15,03,20,23.30
2010,08,15,03,21,23.30
2010,08,15,03,22,23.30
2010,08,15,03,23,23.30
2010,08,15,03,24,23.20
2010,08,15,03,25,23.20
2010,08,15,03,26,23.20
2010,08,15,03,27,23.20
2010,08,15,03,28,23.20
2010,08,15,03,29,23.10
2010,08,15,03,30,23.10
2010,08,15,03,31,23.10
2010,08,15,03,32,23.00
2010,08,15,03,33,22.90
2010,08,15,03,34,22.90
2010,08,15,03,35,22.90
2010,08,15,03,36,22.90
2010,08,15,03,37,22.90
2010,08,15,03,38,22.90
2010,08,15,03,39,22.90
2010,08,15,03,40,22.90
2010,08,15,03,41,22.90
2010,08,15,03,42,22.90
2010,08,15,03,43,22.90
2010,08,15,03,44,22.90
2010,08,15,03,45,22.90
2010,08,15,03,46,22.90
2010,08,15,03,47,22.90
2010,08,15,03,48,22.80
2010,08,15,03,49,22.80
2010,08,15,03,50,22.80
2010,08,15,03,51,22.80
2010,08,15,03,52,22.70
2010,08,15,03,53,22.70
2010,08,15,03,54,22.70
2010,08,15,03,55,22.60
2010,08,15,03,56,22.60
2010,08,15,03,57,22.60
2010,08,15,03,58,22.60
2010,08,15,03,59,22.50
2010,08,15,04,00,22.50
2010,08,15,04,01,22.50
2010,08,15,04,02,22.50
2010,08,15,04,03,22.40
2010,08,15,04,04,22.40
2010,08,15,04,05,22.40
2010,08,15,04,06,22.40
2010,08,15,04,07,22.30
2010,08,15,04,08,22.30
2010,08,15,04,09,22.20
2010,08,15,04,10,22.20
2010,08,15,04,11,22.10
2010,08,15,04,12,22.10
2010,08,15,04,13,22.00
2010,08,15,04,14,22.00
2010,08,15,04,15,22.00
2010,08,15,04,16,21.90
2010,08,15,04,17,21.90
2010,08,15,04,18,21.90
2010,08,15,04,19,21.80
2010,08,15,04,20,21.80
2010,08,15,04,21,21.80
2010,08,15,04,22,21.70
2010,08,15,04,23,21.70
2010,08,15,04,24,21.70
2010,08,15,04,25,21.70
2010,08,15,04,26,21.60
2010,08,15,04,27,21.60
2010,08,15,04,28,21.60
2010,08,15,04,29,21.60
2010,08,15,04,30,21.60
2010,08,15,04,31,21.60
2010,08,15,04,32,21.60
2010,08,15,04,33,21.60
2010,08,15,04,34,21.60
2010,08,15,04,35,21.40
2010,08,15,04,36,21.40
2010,08,15,04,37,21.40
2010,08,15,04,38,21.40
2010,08,15,04,39,21.30
2010,08,15,04,40,21.30
2010,08,15,04,41,21.30
2010,08,15,04,42,21.30
2010,08,15,04,43,21.30
2010,08,15,04,44,21.30
2010,08,15,04,45,21.30
2010,08,15,04,46,21.20
2010,08,15,04,47,21.20
2010,08,15,04,48,21.20
2010,08,15,04,49,21.20
2010,08,15,04,50,21.20
2010,08,15,04,51,21.20
2010,08,15,04,52,21.20
2010,08,15,04,53,21.20
2010,08,15,04,54,21.30
2010,08,15,04,55,21.30
2010,08,15,04,56,21.30
2010,08,15,04,57,21.30
2010,08,15,04,58,21.30
2010,08,15,04,59,21.30
2010,08,15,05,00,21.30
2010,08,15,05,01,21.30
2010,08,15,05,02,21.30
2010,08,15,05,03,21.30
2010,08,15,05,04,21.30
2010,08,15,05,05,21.30
2010,08,15,05,06,21.30
2010,08,15,05,07,21.30
2010,08,15,05,08,21.30
2010,08,15,05,09,21.30
2010,08,15,05,10,21.30
2010,08,15,05,11,21.30
2010,08,15,05,12,21.30
2010,08,15,05,13,21.30
2010,08,15,05,14,21.30
2010,08,15,05,15,21.30
2010,08,15,05,16,21.30
2010,08,15,05,17,21.30
2010,08,15,05,18,21.40
2010,08,15,05,19,21.40
2010,08,15,05,20,21.40
2010,08,15,05,21,21.40
2010,08,15,05,22,21.40
2010,08,15,05,23,21.50
2010,08,15,05,24,21.60
2010,08,15,05,25,21.60
2010,08,15,05,26,21.60
2010,08,15,05,27,21.60
2010,08,15,05,28,21.60
2010,08,15,05,29,21.60
2010,08,15,05,30,21.60
2010,08,15,05,31,21.70
2010,08,15,05,32,21.70
2010,08,15,05,33,21.70
2010,08,15,05,34,21.80
2010,08,15,05,35,21.80
2010,08,15,05,36,21.80
2010,08,15,05,37,21.70
2010,08,15,05,38,21.70
2010,08,15,05,39,21.70
2010,08,15,05,40,21.60
2010,08,15,05,41,21.60
2010,08,15,05,42,21.60
2010,08,15,05,43,21.60
2010,08,15,05,44,21.60
2010,08,15,05,45,21.50
2010,08,15,05,46,21.40
2010,08,15,05,47,21.40
2010,08,15,05,48,21.40
2010,08,15,05,49,21.40
2010,08,15,05,50,21.30
2010,08,15,05,51,21.30
2010,08,15,05,52,21.30
2010,08,15,05,53,21.30
2010,08,15,05,54,21.20
2010,08,15,05,55,21.10
2010,08,15,05,56,21.10
2010,08,15,05,57,21.10
2010,08,15,05,58,21.00
2010,08,15,05,59,21.00
2010,08,15,06,00,21.00
2010,08,15,06,01,21.00
2010,08,15,06,02,21.00
2010,08,15,06,03,21.00
2010,08,15,06,04,21.10
2010,08,15,06,05,21.10
2010,08,15,06,06,21.10
2010,08,15,06,07,21.20
2010,08,15,06,08,21.20
2010,08,15,06,09,21.30
2010,08,15,06,10,21.30
2010,08,15,06,11,21.30
2010,08,15,06,12,21.30
2010,08,15,06,13,21.30
2010,08,15,06,14,21.30
2010,08,15,06,15,21.30
2010,08,15,06,16,21.30
2010,08,15,06,17,21.30
2010,08,15,06,18,21.20
2010,08,15,06,19,21.20
2010,08,15,06,20,21.10
2010,08,15,06,21,21.00
2010,08,15,06,22,21.00
2010,08,15,06,23,21.00
2010,08,15,06,24,20.90
2010,08,15,06,25,20.90
2010,08,15,06,26,20.80
2010,08,15,06,27,20.70
2010,08,15,06,28,20.70
2010,08,15,06,29,20.60
2010,08,15,06,30,20.60
2010,08,15,06,31,20.50
2010,08,15,06,32,20.50
2010,08,15,06,33,20.40
2010,08,15,06,34,20.30
2010,08,15,06,35,20.20
2010,08,15,06,36,20.10
2010,08,15,06,37,20.10
2010,08,15,06,38,20.00
2010,08,15,06,39,19.90
2010,08,15,06,40,19.90
2010,08,15,06,41,19.80
2010,08,15,06,42,19.80
2010,08,15,06,43,19.70
2010,08,15,06,44,19.70
2010,08,15,06,45,19.60
2010,08,15,06,46,19.60
2010,08,15,06,47,19.50
2010,08,15,06,48,19.50
2010,08,15,06,49,19.40
2010,08,15,06,50,19.40
2010,08,15,06,51,19.30
2010,08,15,06,52,19.30
2010,08,15,06,53,19.20
2010,08,15,06,54,19.20
2010,08,15,06,55,19.20
2010,08,15,06,56,19.10
2010,08,15,06,57,19.10
2010,08,15,06,58,19.10
2010,08,15,06,59,19.10
2010,08,15,07,00,19.10
2010,08,15,07,01,19.10
2010,08,15,07,02,19.10
2010,08,15,07,03,19.10
2010,08,15,07,04,19.10
2010,08,15,07,05,19.20
2010,08,15,07,06,19.20
2010,08,15,07,07,19.20
2010,08,15,07,08,19.30
2010,08,15,07,09,19.30
2010,08,15,07,10,19.40
2010,08,15,07,11,19.40
2010,08,15,07,12,19.50
2010,08,15,07,13,19.50
2010,08,15,07,14,19.50
2010,08,15,07,15,19.60
2010,08,15,07,16,19.60
2010,08,15,07,17,19.60
2010,08,15,07,18,19.60
2010,08,15,07,19,19.70
2010,08,15,07,20,19.70
2010,08,15,07,21,19.70
2010,08,15,07,22,19.70
2010,08,15,07,23,19.70
2010,08,15,07,24,19.70
2010,08,15,07,25,19.80
2010,08,15,07,26,19.80
2010,08,15,07,27,19.90
2010,08,15,07,28,19.90
2010,08,15,07,29,19.90
2010,08,15,07,30,19.90
2010,08,15,07,31,19.90
2010,08,15,07,32,19.90
2010,08,15,07,33,19.90
2010,08,15,07,34,20.10
2010,08,15,07,35,20.10
2010,08,15,07,36,20.20
2010,08,15,07,37,20.20
2010,08,15,07,38,20.30
2010,08,15,07,39,20.30
2010,08,15,07,40,20.40
2010,08,15,07,41,20.40
2010,08,15,07,42,20.50
2010,08,15,07,43,20.60
2010,08,15,07,44,20.70
2010,08,15,07,45,20.80
2010,08,15,07,46,20.90
2010,08,15,07,47,21.00
2010,08,15,07,48,21.10
2010,08,15,07,49,21.20
2010,08,15,07,50,21.30
2010,08,15,07,51,21.30
2010,08,15,07,52,21.40
2010,08,15,07,53,21.40
2010,08,15,07,54,21.40
2010,08,15,07,55,21.50
2010,08,15,07,56,21.60
2010,08,15,07,57,21.60
2010,08,15,07,58,21.60
2010,08,15,07,59,21.60
2010,08,15,08,00,21.70
2010,08,15,08,01,21.70
2010,08,15,08,02,21.80
2010,08,15,08,03,21.90
2010,08,15,08,04,21.90
2010,08,15,08,05,22.00
2010,08,15,08,06,22.00
2010,08,15,08,07,22.10
2010,08,15,08,08,22.10
2010,08,15,08,09,22.10
2010,08,15,08,10,22.10
2010,08,15,08,11,22.10
2010,08,15,08,12,22.10
2010,08,15,08,13,22.10
2010,08,15,08,14,22.10
2010,08,15,08,15,22.10
2010,08,15,08,16,22.10
2010,08,15,08,17,22.20
2010,08,15,08,18,22.20
2010,08,15,08,19,22.20
2010,08,15,08,20,22.20
2010,08,15,08,21,22.20
2010,08,15,08,22,22.20
2010,08,15,08,23,22.20
2010,08,15,08,24,22.20
2010,08,15,08,25,22.20
2010,08,15,08,26,22.20
2010,08,15,08,27,22.20
2010,08,15,08,28,22.20
2010,08,15,08,29,22.20
2010,08,15,08,30,22.30
2010,08,15,08,31,22.30
2010,08,15,08,32,22.30
2010,08,15,08,33,22.40
2010,08,15,08,34,22.40
2010,08,15,08,35,22.40
2010,08,15,08,36,22.40
2010,08,15,08,37,22.40
2010,08,15,08,38,22.40
2010,08,15,08,39,22.40
2010,08,15,08,40,22.40
2010,08,15,08,41,22.40
2010,08,15,08,42,22.50
2010,08,15,08,43,22.50
2010,08,15,08,44,22.50
2010,08,15,08,45,22.50
2010,08,15,08,46,22.50
2010,08,15,08,47,22.60
2010,08,15,08,48,22.60
2010,08,15,08,49,22.50
2010,08,15,08,50,22.50
2010,08,15,08,51,22.60
2010,08,15,08,52,22.60
2010,08,15,08,53,22.60
2010,08,15,08,54,22.60
2010,08,15,08,55,22.60
2010,08,15,08,56,22.60
2010,08,15,08,57,22.60
2010,08,15,08,58,22.60
2010,08,15,08,59,22.70
2010,08,15,09,00,22.70
2010,08,15,09,01,22.70
2010,08,15,09,02,22.70
2010,08,15,09,03,22.70
2010,08,15,09,04,22.70
2010,08,15,09,05,22.80
2010,08,15,09,06,22.90
2010,08,15,09,07,22.90
2010,08,15,09,08,22.90
2010,08,15,09,09,22.90
2010,08,15,09,10,22.90
2010,08,15,09,11,22.90
2010,08,15,09,12,22.90
2010,08,15,09,13,22.90
2010,08,15,09,14,22.90
2010,08,15,09,15,22.90
2010,08,15,09,16,22.90
2010,08,15,09,17,22.90
2010,08,15,09,18,22.90
2010,08,15,09,19,22.90
2010,08,15,09,20,23.00
2010,08,15,09,21,23.10
2010,08,15,09,22,23.20
2010,08,15,09,23,23.30
2010,08,15,09,24,23.30
2010,08,15,09,25,23.30
2010,08,15,09,26,23.30
2010,08,15,09,27,23.30
2010,08,15,09,28,23.30
2010,08,15,09,29,23.30
2010,08,15,09,30,23.30
2010,08,15,09,31,23.30
2010,08,15,09,32,23.30
2010,08,15,09,33,23.30
2010,08,15,09,34,23.40
2010,08,15,09,35,23.40
2010,08,15,09,36,23.40
2010,08,15,09,37,23.40
2010,08,15,09,38,23.40
2010,08,15,09,39,23.40
2010,08,15,09,40,23.40
2010,08,15,09,41,23.40
2010,08,15,09,42,23.40
2010,08,15,09,43,23.40
2010,08,15,09,44,23.40
2010,08,15,09,45,23.50
2010,08,15,09,46,23.60
2010,08,15,09,47,23.70
2010,08,15,09,48,23.70
2010,08,15,09,49,23.70
2010,08,15,09,50,23.70
2010,08,15,09,51,23.70
2010,08,15,09,52,23.70
2010,08,15,09,53,23.70
2010,08,15,09,54,23.70
2010,08,15,09,55,23.70
2010,08,15,09,56,23.70
2010,08,15,09,57,23.70
2010,08,15,09,58,23.70
2010,08,15,09,59,23.70
2010,08,15,10,00,23.80
2010,08,15,10,01,23.90
2010,08,15,10,02,23.90
2010,08,15,10,03,23.90
2010,08,15,10,04,23.90
2010,08,15,10,05,24.00
2010,08,15,10,06,24.10
2010,08,15,10,07,24.10
2010,08,15,10,08,24.10
2010,08,15,10,09,24.10
2010,08,15,10,10,24.10
2010,08,15,10,11,24.10
2010,08,15,10,12,24.10
2010,08,15,10,13,24.10
2010,08,15,10,14,24.10
2010,08,15,10,15,24.10
2010,08,15,10,16,24.10
2010,08,15,10,17,24.10
2010,08,15,10,18,24.10
2010,08,15,10,19,24.10
2010,08,15,10,20,24.10
2010,08,15,10,21,24.10
2010,08,15,10,22,24.10
2010,08,15,10,23,24.10
2010,08,15,10,24,24.20
2010,08,15,10,25,24.20
2010,08,15,10,26,24.30
2010,08,15,10,27,24.30
2010,08,15,10,28,24.30
2010,08,15,10,29,24.40
2010,08,15,10,30,24.40
2010,08,15,10,31,24.40
2010,08,15,10,32,24.40
2010,08,15,10,33,24.40
2010,08,15,10,34,24.50
2010,08,15,10,35,24.50
2010,08,15,10,36,24.50
2010,08,15,10,37,24.50
2010,08,15,10,38,24.50
2010,08,15,10,39,24.50
2010,08,15,10,40,24.60
2010,08,15,10,41,24.70
2010,08,15,10,42,24.80
2010,08,15,10,43,24.80
2010,08,15,10,44,24.90
2010,08,15,10,45,25.00
2010,08,15,10,46,25.00
2010,08,15,10,47,25.00
2010,08,15,10,48,25.00
2010,08,15,10,49,25.00
2010,08,15,10,50,25.10
2010,08,15,10,51,25.20
2010,08,15,10,52,25.20
2010,08,15,10,53,25.20
2010,08,15,10,54,25.20
2010,08,15,10,55,25.20
2010,08,15,10,56,25.30
2010,08,15,10,57,25.40
2010,08,15,10,58,25.50
2010,08,15,10,59,25.60
2010,08,15,11,00,25.70
2010,08,15,11,01,25.80
2010,08,15,11,02,25.90
2010,08,15,11,03,25.90
2010,08,15,11,04,26.00
2010,08,15,11,05,26.00
2010,08,15,11,06,26.00
2010,08,15,11,07,26.00
2010,08,15,11,08,26.00
2010,08,15,11,09,26.00
2010,08,15,11,10,26.00
2010,08,15,11,11,26.00
2010,08,15,11,12,26.00
2010,08,15,11,13,26.10
2010,08,15,11,14,26.10
2010,08,15,11,15,26.10
2010,08,15,11,16,26.10
2010,08,15,11,17,26.10
2010,08,15,11,18,26.10
2010,08,15,11,19,26.10
2010,08,15,11,20,26.10
2010,08,15,11,21,26.10
2010,08,15,11,22,26.20
2010,08,15,11,23,26.30
2010,08,15,11,24,26.40
2010,08,15,11,25,26.40
2010,08,15,11,26,26.40
2010,08,15,11,27,26.40
2010,08,15,11,28,26.40
2010,08,15,11,29,26.30
2010,08,15,11,30,26.20
2010,08,15,11,31,26.20
2010,08,15,11,32,26.20
2010,08,15,11,33,26.20
2010,08,15,11,34,26.20
2010,08,15,11,35,26.20
2010,08,15,11,36,26.20
2010,08,15,11,37,26.20
2010,08,15,11,38,26.20
2010,08,15,11,39,26.20
2010,08,15,11,40,26.20
2010,08,15,11,41,26.20
2010,08,15,11,42,26.30
2010,08,15,11,43,26.30
2010,08,15,11,44,26.30
2010,08,15,11,45,26.30
2010,08,15,11,46,26.30
2010,08,15,11,47,26.30
2010,08,15,11,48,26.30
2010,08,15,11,49,26.30
2010,08,15,11,50,26.30
2010,08,15,11,51,26.40
2010,08,15,11,52,26.50
2010,08,15,11,53,26.60
2010,08,15,11,54,26.70
2010,08,15,11,55,26.70
2010,08,15,11,56,26.80
2010,08,15,11,57,26.80
2010,08,15,11,58,26.80
2010,08,15,11,59,26.80
2010,08,15,12,00,26.80
2010,08,15,12,01,26.80
2010,08,15,12,02,26.80
2010,08,15,12,03,26.80
2010,08,15,12,04,26.90
2010,08,15,12,05,26.90
2010,08,15,12,06,26.90
2010,08,15,12,07,26.90
2010,08,15,12,08,26.90
2010,08,15,12,09,27.00
2010,08,15,12,10,27.10
2010,08,15,12,11,27.10
2010,08,15,12,12,27.10
2010,08,15,12,13,27.10
2010,08,15,12,14,27.10
2010,08,15,12,15,27.10
2010,08,15,12,16,27.00
2010,08,15,12,17,27.00
2010,08,15,12,18,27.00
2010,08,15,12,19,26.90
2010,08,15,12,20,27.00
2010,08,15,12,21,27.10
2010,08,15,12,22,27.10
2010,08,15,12,23,27.10
2010,08,15,12,24,27.20
2010,08,15,12,25,27.20
2010,08,15,12,26,27.20
2010,08,15,12,27,27.30
2010,08,15,12,28,27.30
2010,08,15,12,29,27.40
2010,08,15,12,30,27.50
2010,08,15,12,31,27.60
2010,08,15,12,32,27.70
2010,08,15,12,33,27.80
2010,08,15,12,34,27.90
2010,08,15,12,35,28.00
2010,08,15,12,36,28.00
2010,08,15,12,37,28.00
2010,08,15,12,38,28.00
2010,08,15,12,39,27.90
2010,08,15,12,40,27.70
2010,08,15,12,41,27.70
2010,08,15,12,42,27.70
2010,08,15,12,43,27.70
2010,08,15,12,44,27.70
2010,08,15,12,45,27.70
2010,08,15,12,46,27.70
2010,08,15,12,47,27.70
2010,08,15,12,48,27.70
2010,08,15,12,49,27.70
2010,08,15,12,50,27.70
2010,08,15,12,51,27.70
2010,08,15,12,52,27.70
2010,08,15,12,53,27.60
2010,08,15,12,54,27.60
2010,08,15,12,55,27.50
2010,08,15,12,56,27.50
2010,08,15,12,57,27.60
2010,08,15,12,58,27.60
2010,08,15,12,59,27.70
2010,08,15,13,00,27.90
2010,08,15,13,01,28.00
2010,08,15,13,02,28.10
2010,08,15,13,03,28.20
2010,08,15,13,04,28.30
2010,08,15,13,05,28.30
2010,08,15,13,06,28.30
2010,08,15,13,07,28.30
2010,08,15,13,08,28.20
2010,08,15,13,09,28.10
2010,08,15,13,10,28.00
2010,08,15,13,11,27.90
2010,08,15,13,12,27.90
2010,08,15,13,13,28.00
2010,08,15,13,14,28.00
2010,08,15,13,15,27.90
2010,08,15,13,16,27.90
2010,08,15,13,17,27.80
2010,08,15,13,18,27.80
2010,08,15,13,19,27.90
2010,08,15,13,20,27.90
2010,08,15,13,21,28.00
2010,08,15,13,22,28.00
2010,08,15,13,23,28.00
2010,08,15,13,24,28.00
2010,08,15,13,25,27.90
2010,08,15,13,26,27.90
2010,08,15,13,27,27.90
2010,08,15,13,28,27.90
2010,08,15,13,29,27.90
2010,08,15,13,30,27.90
2010,08,15,13,31,27.90
2010,08,15,13,32,27.90
2010,08,15,13,33,27.90
2010,08,15,13,34,27.90
2010,08,15,13,35,27.90
2010,08,15,13,36,28.00
2010,08,15,13,37,28.00
2010,08,15,13,38,28.00
2010,08,15,13,39,28.00
2010,08,15,13,40,28.00
2010,08,15,13,41,28.10
2010,08,15,13,42,28.10
2010,08,15,13,43,28.10
2010,08,15,13,44,28.10
2010,08,15,13,45,28.20
2010,08,15,13,46,28.10
2010,08,15,13,47,28.10
2010,08,15,13,48,28.10
2010,08,15,13,49,28.10
2010,08,15,13,50,28.20
2010,08,15,13,51,28.20
2010,08,15,13,52,28.10
2010,08,15,13,53,28.10
2010,08,15,13,54,28.10
2010,08,15,13,55,28.10
2010,08,15,13,56,28.10
2010,08,15,13,57,28.20
2010,08,15,13,58,28.20
2010,08,15,13,59,28.20
2010,08,15,14,00,28.30
2010,08,15,14,01,28.30
2010,08,15,14,02,28.40
2010,08,15,14,03,28.40
2010,08,15,14,04,28.40
2010,08,15,14,05,28.50
2010,08,15,14,06,28.60
2010,08,15,14,07,28.60
2010,08,15,14,08,28.60
2010,08,15,14,09,28.50
2010,08,15,14,10,28.40
2010,08,15,14,11,28.50
2010,08,15,14,12,28.60
2010,08,15,14,13,28.60
2010,08,15,14,14,28.60
2010,08,15,14,15,28.60
2010,08,15,14,16,28.60
2010,08,15,14,17,28.60
2010,08,15,14,18,28.60
2010,08,15,14,19,28.70
2010,08,15,14,20,28.70
2010,08,15,14,21,28.60
2010,08,15,14,22,28.60
2010,08,15,14,23,28.60
2010,08,15,14,24,28.60
2010,08,15,14,25,28.60
2010,08,15,14,26,28.60
2010,08,15,14,27,28.60
2010,08,15,14,28,28.60
2010,08,15,14,29,28.60
2010,08,15,14,30,28.70
2010,08,15,14,31,28.70
2010,08,15,14,32,28.80
2010,08,15,14,33,28.80
2010,08,15,14,34,28.80
2010,08,15,14,35,28.70
2010,08,15,14,36,28.70
2010,08,15,14,37,28.70
2010,08,15,14,38,28.80
2010,08,15,14,39,28.90
2010,08,15,14,40,28.90
2010,08,15,14,41,28.90
2010,08,15,14,42,28.90
2010,08,15,14,43,29.00
2010,08,15,14,44,29.10
2010,08,15,14,45,29.10
2010,08,15,14,46,29.00
2010,08,15,14,47,28.90
2010,08,15,14,48,28.90
2010,08,15,14,49,28.90
2010,08,15,14,50,28.90
2010,08,15,14,51,28.90
2010,08,15,14,52,28.90
2010,08,15,14,53,28.90
2010,08,15,14,54,28.90
2010,08,15,14,55,29.00
2010,08,15,14,56,29.10
2010,08,15,14,57,29.10
2010,08,15,14,58,29.10
2010,08,15,14,59,29.10
2010,08,15,15,00,29.10
2010,08,15,15,01,29.20
2010,08,15,15,02,29.20
2010,08,15,15,03,29.20
2010,08,15,15,04,29.20
2010,08,15,15,05,29.20
2010,08,15,15,06,29.20
2010,08,15,15,07,29.20
2010,08,15,15,08,29.20
2010,08,15,15,09,29.30
2010,08,15,15,10,29.30
2010,08,15,15,11,29.30
2010,08,15,15,12,29.30
2010,08,15,15,13,29.30
2010,08,15,15,14,29.20
2010,08,15,15,15,29.30
2010,08,15,15,16,29.30
2010,08,15,15,17,29.40
2010,08,15,15,18,29.40
2010,08,15,15,19,29.50
2010,08,15,15,20,29.50
2010,08,15,15,21,29.50
2010,08,15,15,22,29.50
2010,08,15,15,23,29.60
2010,08,15,15,24,29.60
2010,08,15,15,25,29.70
2010,08,15,15,26,29.70
2010,08,15,15,27,29.80
2010,08,15,15,28,29.80
2010,08,15,15,29,29.90
2010,08,15,15,30,30.00
2010,08,15,15,31,30.10
2010,08,15,15,32,30.20
2010,08,15,15,33,30.20
2010,08,15,15,34,30.20
2010,08,15,15,35,30.30
2010,08,15,15,36,30.20
2010,08,15,15,37,30.20
2010,08,15,15,38,30.20
2010,08,15,15,39,30.20
2010,08,15,15,40,30.10
2010,08,15,15,41,30.00
2010,08,15,15,42,29.90
2010,08,15,15,43,29.90
2010,08,15,15,44,29.90
2010,08,15,15,45,29.80
2010,08,15,15,46,29.80
2010,08,15,15,47,29.80
2010,08,15,15,48,29.80
2010,08,15,15,49,29.90
2010,08,15,15,50,29.90
2010,08,15,15,51,30.00
2010,08,15,15,52,30.10
2010,08,15,15,53,30.10
2010,08,15,15,54,30.20
2010,08,15,15,55,30.20
2010,08,15,15,56,30.20
2010,08,15,15,57,30.30
2010,08,15,15,58,30.40
2010,08,15,15,59,30.40
2010,08,15,16,00,30.60
2010,08,15,16,01,30.60
2010,08,15,16,02,30.70
2010,08,15,16,03,30.70
2010,08,15,16,04,30.70
2010,08,15,16,05,30.70
2010,08,15,16,06,30.70
2010,08,15,16,07,30.70
2010,08,15,16,08,30.70
2010,08,15,16,09,30.70
2010,08,15,16,10,30.70
2010,08,15,16,11,30.60
2010,08,15,16,12,30.60
2010,08,15,16,13,30.60
2010,08,15,16,14,30.60
2010,08,15,16,15,30.60
2010,08,15,16,16,30.60
2010,08,15,16,17,30.60
2010,08,15,16,18,30.70
2010,08,15,16,19,30.70
2010,08,15,16,20,30.80
2010,08,15,16,21,30.80
2010,08,15,16,22,30.80
2010,08,15,16,23,30.90
2010,08,15,16,24,30.90
2010,08,15,16,25,31.00
2010,08,15,16,26,31.00
2010,08,15,16,27,31.00
2010,08,15,16,28,30.90
2010,08,15,16,29,30.90
2010,08,15,16,30,30.90
2010,08,15,16,31,30.80
2010,08,15,16,32,30.80
2010,08,15,16,33,30.80
2010,08,15,16,34,30.70
2010,08,15,16,35,30.70
2010,08,15,16,36,30.70
2010,08,15,16,37,30.70
2010,08,15,16,38,30.70
2010,08,15,16,39,30.60
2010,08,15,16,40,30.60
2010,08,15,16,41,30.50
2010,08,15,16,42,30.30
2010,08,15,16,43,30.20
2010,08,15,16,44,30.10
2010,08,15,16,45,30.00
2010,08,15,16,46,29.90
2010,08,15,16,47,29.90
2010,08,15,16,48,30.00
2010,08,15,16,49,30.10
2010,08,15,16,50,30.10
2010,08,15,16,51,30.10
2010,08,15,16,52,30.10
2010,08,15,16,53,30.10
2010,08,15,16,54,30.10
2010,08,15,16,55,30.20
2010,08,15,16,56,30.20
2010,08,15,16,57,30.30
2010,08,15,16,58,30.30
2010,08,15,16,59,30.30
2010,08,15,17,00,30.30
2010,08,15,17,01,30.30
2010,08,15,17,02,30.30
2010,08,15,17,03,30.30
2010,08,15,17,04,30.30
2010,08,15,17,05,30.30
2010,08,15,17,06,30.40
2010,08,15,17,07,30.50
2010,08,15,17,08,30.60
2010,08,15,17,09,30.60
2010,08,15,17,10,30.60
2010,08,15,17,11,30.60
2010,08,15,17,12,30.70
2010,08,15,17,13,30.60
2010,08,15,17,14,30.60
2010,08,15,17,15,30.60
2010,08,15,17,16,30.50
2010,08,15,17,17,30.40
2010,08,15,17,18,30.40
2010,08,15,17,19,30.40